Location: NJAA Observatory
(40.6819°N, 74.8979°W)
Time: 14:17:48
(UTC-05:00)

Cosmos 2263 Rocket - Visible Passes

Search period start: 19 January 2017 00:00
Search period end: 29 January 2017 00:00
Orbit: 822 x 850 km, 71.0° (Epoch: 18 January)

Date Brightness Start Highest point End Pass type
(mag) Time Alt. Az. Time Alt. Az. Time Alt. Az.
19 Jan 3.0 06:12:08 10° S 06:17:39 56° ESE 06:23:13 10° NNE visible
20 Jan 3.2 05:55:31 10° S 06:00:58 51° ESE 06:06:29 10° NNE visible
21 Jan 3.3 05:38:54 10° S 05:44:17 47° ESE 05:49:44 10° NE visible
22 Jan 3.4 05:22:17 10° S 05:27:37 43° ESE 05:32:58 10° NE visible
23 Jan 3.5 05:05:42 10° S 05:10:56 39° ESE 05:16:11 10° NE visible
24 Jan 3.7 04:49:07 10° S 04:54:15 36° ESE 04:59:25 10° NE visible
24 Jan 2.9 06:33:05 10° WSW 06:38:10 33° WNW 06:43:17 10° N visible
25 Jan 3.8 04:32:35 10° SSE 04:37:35 33° ESE 04:42:37 10° NE visible
25 Jan 2.8 06:16:15 10° SW 06:21:25 35° WNW 06:26:38 10° N visible
26 Jan 3.9 04:16:02 10° SSE 04:20:55 30° ESE 04:25:49 10° NE visible
26 Jan 2.7 05:59:24 10° SW 06:04:41 38° WNW 06:09:59 10° N visible
27 Jan 4.0 04:02:03 22° SE 04:04:14 28° ESE 04:09:00 10° NE visible
27 Jan 2.6 05:43:53 17° WSW 05:47:56 41° WNW 05:53:20 10° N visible
28 Jan 4.1 03:47:33 26° ESE 03:47:34 26° ESE 03:52:10 10° NE visible
28 Jan 2.5 05:29:21 34° WSW 05:31:12 45° WNW 05:36:40 10° NNE visible
